Tracking 19908 objects as of 18-Oct-2019
HD Live streaming from Space Station
objects crossing your sky now

SL-8 DEB

Track SL-8 DEB now!
10-day predictions


NORAD ID: 19831
Int'l Code: 1989-005C
Perigee: 713.1 km
Apogee: 733.8 km
Inclination: 74.1 °
Period: 99.1 minutes
Semi major axis: 7094 km
RCS: 0.0065 m2 (small)
Launch date: January 26, 1989
Source: Commonwealth of Independent States (former USSR) (CIS)
Launch site: PLESETSK MISSILE AND SPACE COMPLEX (PKMTR)

Note: This is SATELLITE DEBRIS
aabbcc
Your satellite tracking list
Your tracking list is empty




NASA's NSSDC Master Catalog

Two Line Element Set (TLE):
1 19831U 89005C   19290.49198653  .00000210  00000-0  57752-4 0  9993
2 19831  74.0668 101.7768 0014530  22.4531   8.7173 14.52861435618331
Source of the keplerian elements: AFSPC